User: anonymous   Login
Location: Unspecified
(0.0000°N, 0.0000°E)
Time: 17:12:54
(UTC+02:00)
Language:

NOSS 3-3 (A) - Orbit

View from above orbital plane
View from above orbital plane
View from above satellite
View from above satellite

Ground track
Ground track

The orbit data is extracted from the following two-line orbital elements,

1 28537U 05004A   16239.04870333 0.00000000  00000-0  00000-0 0    06
2 28537  63.4284 220.5485 0239000 357.8083   2.1916 13.40716485    06
Epoch (UTC): 26 August 2016 01:10:07
Eccentricity: 0.0239000
inclination: 63.4284°
perigee height: 928 km
apogee height: 1285 km
right ascension of ascending node: 220.5485°
argument of perigee: 357.8083°
revolutions per day: 13.40716485
mean anomaly at epoch: 2.1916°
orbit number at epoch: 0

The dashed part of the orbit path shows where the satellite is in the earth's shadow,  

DLR